Location: *
(38.9555°S, 57.3572°E)
Time: 01:55:46
(UTC+00:00)

Timation 2 Rocket - Pass Details

Date: 15 July 2020
Orbit: 907 x 1074 km, 70.0° (Epoch: 06 August)

Event Time Altitude Azimuth Distance (km) Brightness Sun altitude
Rises 13:26:59 0° 345° (NNW) 3,606 7.6 -4.2°
Reaches altitude 10° 13:29:27 10° 347° (NNW) 2,690 6.9 -4.7°
Maximum altitude 13:35:41 72° 69° (ENE) 1,048 4.1 -5.8°
Drops below altitude 10° 13:42:18 10° 152° (SSE) 2,840 6.0 -7.0°
Sets 13:44:58 0° 153° (SSE) 3,821 6.6 -7.4°
